User: anonymous
Location: Wildlife_Club
(35.6000°N, 81.4330°W)
Time: 00:37:00
(UTC-04:00)
Language:

Cosmos 1782 - Orbit

View from above orbital plane
View from above orbital plane
View from above satellite
View from above satellite

Ground track
Ground track

The orbit data is extracted from the following two-line orbital elements,

1 16986U 86074A   14209.10971271  .00001081  00000-0  78355-4 0  8068
2 16986 082.5060 065.7132 0011316 348.7971 011.3000 15.02945967512122
Epoch (UTC): 28 July 2014 02:37:59
Eccentricity: 0.0011316
inclination: 82.5060°
perigee height: 550 km
apogee height: 565 km
right ascension of ascending node: 65.7132°
argument of perigee: 348.7971°
revolutions per day: 15.02945967
mean anomaly at epoch: 11.3000°
orbit number at epoch: 51212

The dashed part of the orbit path shows where the satellite is in the earth's shadow,  

DLR